Monroe, WI

3:41 PM CDT on April 22, 2018 (GMT -0500)
Monroe Municipal

Weather History for KEFT - November, 2011

Change the Weather History Date:

Thursday, November 17, 2011

  Actual Average Record
Temperature  
Mean Temperature 28 °F -  
Max Temperature 32 °F 0 °F 69 °F (2016)
Min Temperature 23 °F - 8 °F (2014)
Degree Days  
Heating Degree Days 38    
Moisture  
Dew Point 12 °F    
Average Humidity 53    
Maximum Humidity 74    
Minimum Humidity 35    
Precipitation  
Precipitation 0.00 in - - ()
Sea Level Pressure  
Sea Level Pressure 30.13 in    
Wind  
Wind Speed 14 mph (West)    
Max Wind Speed 22 mph    
Max Gust Speed 29 mph    
Visibility 10 miles    
Events      
Averages and records for this station are not official NWS values.
T = Trace of Precipitation, MM = Missing Value Source: NWS Daily Summary

Daily Weather History Graph

Daily Weather History Graph

Search for Another Location

Airport or City:

Astronomy

Nov. 17, 2011 Rise Set
Actual Time 6:51 AM CST 4:34 PM CST
Civil Twilight 6:21 AM CST 5:04 PM CST
Nautical Twilight 5:47 AM CST 5:38 PM CST
Astronomical Twilight 5:13 AM CST 6:12 PM CST
Moon 10:57 PM CST (11/17) 11:58 AM CST (11/17)
Length of Visible Light 10h 43m
Length of Day
9h 42m
Waning Gibbous, 59% of the Moon is Illuminated
Nov 17
Waning Gibbous
Nov 18
Last Quarter
Nov 25
New
Dec 2
First Quarter
Dec 10
Full

Hourly Weather History & Observations

Time (CST) Temp. Windchill Dew Point Humidity Pressure Visibility Wind Dir Wind Speed Gust Speed Precip Events Conditions
12:15 AM 30.2 °F 18.9 °F 12.2 °F 47% 30.09 in 10.0 mi West 16.1 mph 25.3 mph N/A   Clear
12:35 AM 30.2 °F 19.3 °F 14.0 °F 51% 30.09 in 10.0 mi West 15.0 mph 21.9 mph N/A   Clear
12:55 AM 30.2 °F 20.2 °F 14.0 °F 51% 30.08 in 10.0 mi West 12.7 mph 21.9 mph N/A   Clear
1:15 AM 28.4 °F 17.0 °F 14.0 °F 55% 30.08 in 10.0 mi West 15.0 mph 19.6 mph N/A   Clear
1:35 AM 28.4 °F 17.0 °F 14.0 °F 55% 30.08 in 10.0 mi West 15.0 mph - N/A   Clear
1:55 AM 28.4 °F 18.5 °F 14.0 °F 55% 30.09 in 10.0 mi West 11.5 mph - N/A   Clear
2:15 AM 28.4 °F 18.5 °F 14.0 °F 55% 30.09 in 10.0 mi West 11.5 mph 18.4 mph N/A   Clear
2:35 AM 26.6 °F 16.2 °F 14.0 °F 59% 30.09 in 10.0 mi West 11.5 mph - N/A   Clear
2:55 AM 26.6 °F 15.2 °F 15.8 °F 64% 30.10 in 10.0 mi West 13.8 mph - N/A   Clear
3:15 AM 26.6 °F 14.7 °F 14.0 °F 59% 30.10 in 10.0 mi West 15.0 mph 19.6 mph N/A   Clear
3:35 AM 26.6 °F 14.3 °F 14.0 °F 59% 30.10 in 10.0 mi West 16.1 mph 21.9 mph N/A   Clear
4:15 AM 26.6 °F 14.7 °F 14.0 °F 59% 30.11 in 10.0 mi West 15.0 mph - N/A   Clear
4:35 AM 24.8 °F 12.9 °F 15.8 °F 69% 30.11 in 10.0 mi West 13.8 mph 20.7 mph N/A   Clear
4:55 AM 24.8 °F 13.4 °F 14.0 °F 64% 30.11 in 10.0 mi West 12.7 mph 18.4 mph N/A   Clear
5:15 AM 23.0 °F 11.1 °F 14.0 °F 68% 30.11 in 10.0 mi West 12.7 mph - N/A   Clear
5:35 AM 23.0 °F 10.6 °F 14.0 °F 68% 30.12 in 10.0 mi West 13.8 mph - N/A   Clear
5:55 AM 23.0 °F 10.6 °F 14.0 °F 68% 30.12 in 10.0 mi West 13.8 mph - N/A   Clear
6:15 AM 23.0 °F 11.1 °F 14.0 °F 68% 30.12 in 10.0 mi West 12.7 mph - N/A   Clear
6:35 AM 23.0 °F 11.1 °F 14.0 °F 68% 30.12 in 10.0 mi West 12.7 mph - N/A   Clear
6:55 AM 23.0 °F 11.7 °F 14.0 °F 68% 30.13 in 10.0 mi WSW 11.5 mph - N/A   Clear
7:15 AM 23.0 °F 11.1 °F 14.0 °F 68% 30.13 in 10.0 mi West 12.7 mph - N/A   Clear
7:35 AM 23.0 °F 10.6 °F 14.0 °F 68% 30.13 in 10.0 mi West 13.8 mph - N/A   Clear
7:55 AM 23.0 °F 9.6 °F 15.8 °F 74% 30.14 in 10.0 mi West 16.1 mph 19.6 mph N/A   Clear
8:15 AM 24.8 °F 11.9 °F 14.0 °F 64% 30.15 in 10.0 mi West 16.1 mph 21.9 mph N/A   Clear
8:35 AM 24.8 °F 12.9 °F 14.0 °F 64% 30.15 in 10.0 mi WNW 13.8 mph 24.2 mph N/A   Clear
8:55 AM 26.6 °F 15.7 °F 14.0 °F 59% 30.15 in 10.0 mi West 12.7 mph 19.6 mph N/A   Clear
9:15 AM 26.6 °F 14.7 °F 12.2 °F 55% 30.15 in 10.0 mi West 15.0 mph - N/A   Clear
9:35 AM 28.4 °F 17.0 °F 14.0 °F 55% 30.16 in 10.0 mi West 15.0 mph 21.9 mph N/A   Clear
9:55 AM 28.4 °F 16.6 °F 14.0 °F 55% 30.16 in 10.0 mi West 16.1 mph 26.5 mph N/A   Clear
10:15 AM 28.4 °F 18.0 °F 12.2 °F 51% 30.17 in 10.0 mi West 12.7 mph 23.0 mph N/A   Clear
10:35 AM 28.4 °F 15.1 °F 12.2 °F 51% 30.18 in 10.0 mi West 20.7 mph 24.2 mph N/A   Clear
10:55 AM 30.2 °F 17.4 °F 14.0 °F 51% 30.17 in 10.0 mi West 20.7 mph 26.5 mph N/A   Clear
11:15 AM 30.2 °F 17.1 °F 12.2 °F 47% 30.17 in 10.0 mi West 21.9 mph - N/A   Clear
11:35 AM 30.2 °F 17.8 °F 12.2 °F 47% 30.16 in 10.0 mi West 19.6 mph 28.8 mph N/A   Clear
11:55 AM 32.0 °F 20.1 °F 12.2 °F 44% 30.15 in 10.0 mi West 19.6 mph 24.2 mph N/A   Clear
12:15 PM 32.0 °F 19.8 °F 12.2 °F 44% 30.15 in 10.0 mi West 20.7 mph - N/A   Clear
12:35 PM 32.0 °F 20.1 °F 12.2 °F 44% 30.14 in 10.0 mi West 19.6 mph 27.6 mph N/A   Clear
12:55 PM 32.0 °F 20.5 °F 12.2 °F 44% 30.14 in 10.0 mi West 18.4 mph 24.2 mph N/A   Clear
1:15 PM 32.0 °F 19.8 °F 12.2 °F 44% 30.15 in 10.0 mi West 20.7 mph 24.2 mph N/A   Clear
1:35 PM 32.0 °F 21.2 °F 8.6 °F 38% 30.14 in 10.0 mi West 16.1 mph 24.2 mph N/A   Clear
2:15 PM 32.0 °F 20.5 °F 8.6 °F 38% 30.14 in 10.0 mi West 18.4 mph 23.0 mph N/A   Clear
2:35 PM 32.0 °F 20.8 °F 6.8 °F 35% 30.14 in 10.0 mi West 17.3 mph 23.0 mph N/A   Clear
2:55 PM 32.0 °F 20.5 °F 8.6 °F 38% 30.14 in 10.0 mi West 18.4 mph 24.2 mph N/A   Clear
3:15 PM 32.0 °F 21.2 °F 6.8 °F 35% 30.14 in 10.0 mi West 16.1 mph 21.9 mph N/A   Clear
3:35 PM 32.0 °F 22.5 °F 8.6 °F 38% 30.15 in 10.0 mi West 12.7 mph 18.4 mph N/A   Clear
3:55 PM 32.0 °F 24.2 °F 8.6 °F 38% 30.15 in 10.0 mi West 9.2 mph - N/A   Clear
4:15 PM 32.0 °F 24.8 °F 8.6 °F 38% 30.14 in 10.0 mi West 8.1 mph - N/A   Clear
4:35 PM 32.0 °F 24.8 °F 10.4 °F 41% 30.14 in 10.0 mi WSW 8.1 mph - N/A   Clear
4:55 PM 32.0 °F 24.8 °F 8.6 °F 38% 30.14 in 10.0 mi WSW 8.1 mph - N/A   Clear
5:15 PM 32.0 °F 26.4 °F 8.6 °F 38% 30.14 in 10.0 mi WSW 5.8 mph - N/A   Clear
5:35 PM 30.2 °F 23.4 °F 10.4 °F 44% 30.15 in 10.0 mi SW 6.9 mph - N/A   Clear
5:55 PM 28.4 °F 22.2 °F 10.4 °F 47% 30.15 in 10.0 mi SW 5.8 mph - N/A   Clear
6:15 PM 28.4 °F 22.2 °F 10.4 °F 47% 30.15 in 10.0 mi SSW 5.8 mph - N/A   Clear
6:35 PM 28.4 °F 21.2 °F 12.2 °F 51% 30.15 in 10.0 mi South 6.9 mph - N/A   Clear
6:55 PM 28.4 °F 22.2 °F 12.2 °F 51% 30.15 in 10.0 mi SSW 5.8 mph - N/A   Clear
7:35 PM 28.4 °F 22.2 °F 12.2 °F 51% 30.13 in 10.0 mi South 5.8 mph - N/A   Clear
7:55 PM 28.4 °F 22.2 °F 12.2 °F 51% 30.13 in 10.0 mi South 5.8 mph - N/A   Clear
8:15 PM 28.4 °F 21.2 °F 12.2 °F 51% 30.14 in 10.0 mi South 6.9 mph - N/A   Clear
8:35 PM 26.6 °F 19.1 °F 12.2 °F 55% 30.14 in 10.0 mi South 6.9 mph - N/A   Clear
8:55 PM 26.6 °F 19.1 °F 14.0 °F 59% 30.13 in 10.0 mi South 6.9 mph - N/A   Clear
9:35 PM 26.6 °F 17.5 °F 14.0 °F 59% 30.13 in 10.0 mi South 9.2 mph - N/A   Clear
9:55 PM 26.6 °F 18.2 °F 15.8 °F 64% 30.13 in 10.0 mi South 8.1 mph - N/A   Clear
10:35 PM 26.6 °F 16.8 °F 15.8 °F 64% 30.11 in 10.0 mi South 10.4 mph - N/A   Clear
10:55 PM 26.6 °F 17.5 °F 15.8 °F 64% 30.11 in 10.0 mi South 9.2 mph - N/A   Clear
11:15 PM 26.6 °F 16.2 °F 15.8 °F 64% 30.10 in 10.0 mi South 11.5 mph - N/A   Clear
11:35 PM 28.4 °F 17.5 °F 17.6 °F 64% 30.09 in 10.0 mi South 13.8 mph - N/A   Clear
11:55 PM 28.4 °F 18.5 °F 17.6 °F 64% 30.09 in 10.0 mi South 11.5 mph - N/A   Clear